Prince Rupert, British Columbia

4:01 PM PDT on March 25, 2017 (GMT -0700)
Prince Rupert

Weather History for CYPR - October, 2012

Change the Weather History Date:

Monday, October 1, 2012

  Actual Average Record
Temperature  
Mean Temperature 52 °F -  
Max Temperature 56 °F 53 °F 66 °F (2010)
Min Temperature 46 °F 43 °F 30 °F (1996)
Degree Days  
Heating Degree Days 14    
Growing Degree Days 2 (Base 50)    
Moisture  
Dew Point 50 °F    
Average Humidity 90    
Maximum Humidity 100    
Minimum Humidity 58    
Precipitation  
Precipitation 0.31 in - - ()
Sea Level Pressure  
Sea Level Pressure 29.91 in    
Wind  
Wind Speed 10 mph ()    
Max Wind Speed 21 mph    
Max Gust Speed 38 mph    
Visibility 6.6 miles    
Events Rain    
Averages and records for this station are not official NWS values.
T = Trace of Precipitation, MM = Missing Value Source: Averaged Metar Reports

Daily Weather History Graph

Daily Weather History Graph

Search for Another Location

Airport or City:

Trip Planner

Search our weather history database for the weather conditions in past years. The results will help you decide how hot, cold, wet, or windy it might be!

Date:

Astronomy

Oct. 01, 2012 Rise Set
Actual Time 7:45 AM PDT 7:16 PM PDT
Civil Twilight 7:09 AM PDT 7:51 PM PDT
Nautical Twilight 6:28 AM PDT 8:33 PM PDT
Astronomical Twilight 5:45 AM PDT 9:15 PM PDT
Moon 7:30 PM PDT (10/1) 9:44 AM PDT (10/1)
Length of Visible Light 12h 42m
Length of Day
11h 31m
Full, 97% of the Moon is Illuminated
Oct 1
Full
Oct 8
Last Quarter
Oct 15
New
Oct 21
First Quarter
Oct 29
Full

Hourly Weather History & Observations

Time (PDT) Temp. Windchill Dew Point Humidity Pressure Visibility Wind Dir Wind Speed Gust Speed Precip Events Conditions
12:00 AM 55.4 °F - 53.6 °F 94% 29.84 in 3.0 mi SSE 10.4 mph 18.4 mph N/A Rain Rain
12:13 AM 53.6 °F - 53.6 °F 100% 29.84 in 3.0 mi SSE 9.2 mph 19.6 mph N/A Rain Light Rain
12:22 AM 53.6 °F - 53.6 °F 100% 29.85 in 2.5 mi SSE 9.2 mph 18.4 mph N/A Rain Light Rain
12:27 AM 53.6 °F - 53.6 °F 100% 29.85 in 2.5 mi SSE 8.1 mph 18.4 mph N/A Rain Rain
12:48 AM 53.6 °F - 53.6 °F 100% 29.83 in 2.5 mi SSE 10.4 mph - N/A Rain Heavy Rain
12:52 AM 53.6 °F - 53.6 °F 100% 29.83 in 2.5 mi SSE 10.4 mph 17.3 mph N/A Rain Rain
1:00 AM 55.4 °F - 53.6 °F 94% 29.83 in 2.5 mi SSE 9.2 mph 17.3 mph N/A Rain Rain
1:01 AM 55.4 °F - 55.4 °F 100% 29.82 in 2.5 mi SSE 9.2 mph 17.3 mph N/A Rain Rain
1:03 AM 55.4 °F - 55.4 °F 100% 29.82 in 2.5 mi SSE 10.4 mph - N/A Rain Rain
1:14 AM 55.4 °F - 55.4 °F 100% 29.81 in 3.0 mi SSE 11.5 mph 17.3 mph N/A Rain Light Rain
1:27 AM 55.4 °F - 55.4 °F 100% 29.80 in 6.0 mi SE 13.8 mph - N/A Rain Light Rain
1:35 AM 55.4 °F - 55.4 °F 100% 29.80 in 9.0 mi SSE 11.5 mph 20.7 mph N/A   Overcast
1:46 AM 55.4 °F - 55.4 °F 100% 29.80 in 9.0 mi SSE 13.8 mph - N/A Rain Light Rain
2:00 AM 55.4 °F - 55.4 °F 100% 29.79 in 9.0 mi South 10.4 mph 19.6 mph N/A   Overcast
2:35 AM 57.2 °F - 55.4 °F 94% 29.79 in 9.0 mi South 9.2 mph 25.3 mph N/A Rain Light Rain
2:45 AM 55.4 °F - 55.4 °F 100% 29.79 in 9.0 mi South 11.5 mph 21.9 mph N/A   Overcast
2:59 AM 55.4 °F - 55.4 °F 100% 29.79 in 9.0 mi SSE 9.2 mph 21.9 mph N/A   Overcast
3:00 AM 55.4 °F - 55.4 °F 100% 29.79 in 9.0 mi South 10.4 mph 21.9 mph N/A   Overcast
3:03 AM 55.4 °F - 55.4 °F 100% 29.80 in 9.0 mi South 9.2 mph 18.4 mph N/A   Overcast
3:49 AM 55.4 °F - 53.6 °F 94% 29.79 in 9.0 mi South 8.1 mph 19.6 mph N/A   Overcast
4:00 AM 55.4 °F - 53.6 °F 94% 29.79 in 9.0 mi South 10.4 mph 18.4 mph N/A   Overcast
5:00 AM 56 °F - 53 °F 84% 29.78 in 10 mi South 10.4 mph - -   Clear
5:00 AM 55.4 °F - 51.8 °F 88% 29.78 in 9.0 mi South 10.4 mph 24.2 mph N/A   Overcast
5:17 AM 55.4 °F - 51.8 °F 88% 29.77 in 9.0 mi South 11.5 mph 20.7 mph N/A Rain Light Rain
5:31 AM 55.4 °F - 53.6 °F 94% 29.78 in 5.0 mi South 12.7 mph 25.3 mph N/A Rain Light Rain
5:40 AM 55.4 °F - 53.6 °F 94% 29.77 in 6.0 mi South 11.5 mph 21.9 mph N/A Rain Light Rain
6:00 AM 55.4 °F - 53.6 °F 94% 29.77 in 9.0 mi South 9.2 mph 20.7 mph N/A   Overcast
6:09 AM 55.4 °F - 51.8 °F 88% 29.78 in 9.0 mi South 8.1 mph 21.9 mph N/A Rain Light Rain
6:29 AM 53.6 °F - 51.8 °F 94% 29.78 in 5.0 mi Variable 6.9 mph - N/A Rain Light Rain
6:39 AM 53.6 °F - 51.8 °F 94% 29.77 in 6.0 mi South 10.4 mph 18.4 mph N/A Rain Light Rain
6:42 AM 53.6 °F - 51.8 °F 94% 29.78 in 7.0 mi South 10.4 mph 18.4 mph N/A   Overcast
6:58 AM 53.6 °F - 51.8 °F 94% 29.78 in 9.0 mi South 8.1 mph 20.7 mph N/A Rain Light Rain
7:00 AM 53.6 °F - 51.8 °F 94% 29.78 in 9.0 mi South 8.1 mph 20.7 mph N/A Rain Light Rain
7:12 AM 53.6 °F - 51.8 °F 94% 29.78 in 9.0 mi South 9.2 mph 18.4 mph N/A   Overcast
7:35 AM 53.6 °F - 51.8 °F 94% 29.78 in 8.0 mi South 8.1 mph - N/A Rain Light Rain
7:37 AM 53.6 °F - 51.8 °F 94% 29.78 in 5.0 mi South 10.4 mph 18.4 mph N/A Rain Light Rain
7:44 AM 53.6 °F - 51.8 °F 94% 29.78 in 2.5 mi South 8.1 mph 18.4 mph N/A Rain Rain
7:52 AM 53.6 °F - 51.8 °F 94% 29.78 in 3.0 mi South 5.8 mph - N/A Rain Light Rain
8:00 AM 53.6 °F - 51.8 °F 94% 29.78 in 3.0 mi South 9.2 mph - N/A Rain Light Rain
8:16 AM 53.6 °F - 51.8 °F 94% 29.79 in 2.5 mi SSW 8.1 mph 18.4 mph N/A Rain Rain
8:20 AM 53.6 °F - 51.8 °F 94% 29.79 in 2.2 mi South 8.1 mph 18.4 mph N/A Rain Rain
8:23 AM 53.6 °F - 51.8 °F 94% 29.80 in 1.8 mi South 4.6 mph - N/A Rain Light Rain
8:24 AM 53.6 °F - 51.8 °F 94% 29.80 in 1.8 mi SSW 6.9 mph - N/A Rain Light Rain
8:25 AM 53.6 °F - 51.8 °F 94% 29.80 in 1.8 mi SSW 10.4 mph 18.4 mph N/A Rain Light Rain
8:48 AM 51.8 °F - 51.8 °F 100% 29.82 in 2.0 mi South 15.0 mph 25.3 mph N/A Rain Light Rain
8:55 AM 51.8 °F - 50.0 °F 94% 29.84 in 3.0 mi West 17.3 mph 38.0 mph N/A Rain Light Rain
9:00 AM 50.0 °F - 50.0 °F 100% 29.84 in 5.0 mi WSW 18.4 mph 38.0 mph N/A Rain Light Rain
9:01 AM 50.0 °F - 50.0 °F 100% 29.84 in 6.0 mi West 18.4 mph 38.0 mph N/A Rain Light Rain
9:05 AM 50.0 °F - 48.2 °F 94% 29.85 in 9.0 mi West 20.7 mph 31.1 mph N/A   Overcast
9:30 AM 50.0 °F - 46.4 °F 87% 29.88 in 7.0 mi West 18.4 mph 28.8 mph N/A   Overcast
10:12 AM 50.0 °F - 46.4 °F 87% 29.94 in 9.0 mi West 11.5 mph 18.4 mph N/A   Overcast
10:23 AM 50.0 °F - 46.4 °F 87% 29.95 in 5.0 mi WNW 17.3 mph 28.8 mph N/A Rain Light Rain
10:31 AM 48.2 °F - 46.4 °F 93% 29.95 in 2.5 mi WNW 12.7 mph 28.8 mph N/A Rain Light Rain
10:41 AM 48.2 °F - 46.4 °F 93% 29.96 in 3.0 mi WNW 12.7 mph 23.0 mph N/A Rain Light Rain
10:50 AM 48.2 °F - 44.6 °F 87% 29.97 in 6.0 mi WNW 15.0 mph 26.5 mph N/A Rain Light Rain
11:00 AM 49 °F - 46 °F 85% 29.99 in 10 mi West 15.0 mph - - Rain Light Rain
11:00 AM 48.2 °F - 46.4 °F 93% 29.99 in 9.0 mi WNW 13.8 mph 25.3 mph N/A Rain Light Rain
11:01 AM 48.2 °F - 46.4 °F 93% 29.99 in 9.0 mi WNW 12.7 mph 25.3 mph N/A   Overcast
11:56 AM 50.0 °F - 42.8 °F 76% 30.04 in 9.0 mi WNW 15.0 mph 24.2 mph N/A   Overcast
12:00 PM 50.0 °F - 44.6 °F 82% 30.05 in 9.0 mi WNW 13.8 mph 24.2 mph N/A   Overcast
1:00 PM 53.6 °F - 42.8 °F 67% 30.12 in 9.0 mi WNW 12.7 mph 25.3 mph N/A   Mostly Cloudy
2:00 PM 53.6 °F - 42.8 °F 67% 30.16 in 9.0 mi WNW 6.9 mph - N/A   Overcast
3:00 PM 51.8 °F - 42.8 °F 71% 30.19 in 9.0 mi WNW 12.7 mph 21.9 mph N/A   Overcast
4:00 PM 53.6 °F - 42.8 °F 67% 30.22 in 9.0 mi West 13.8 mph 23.0 mph N/A   Scattered Clouds
5:00 PM 52 °F - 42 °F 58% 30.25 in 10 mi WNW 13.8 mph - -  
5:00 PM 51.8 °F - 41.0 °F 67% 30.25 in 9.0 mi WNW 12.7 mph 23.0 mph N/A   Clear
6:00 PM 51.8 °F - 41.0 °F 67% 30.27 in 9.0 mi West 13.8 mph 21.9 mph N/A   Clear
7:00 PM 50.0 °F - 41.0 °F 71% 30.29 in 9.0 mi WNW 12.7 mph 24.2 mph N/A   Clear
8:00 PM 50.0 °F - 39.2 °F 66% 30.31 in 9.0 mi WNW 15.0 mph 21.9 mph N/A   Clear
9:00 PM 48.2 °F - 41.0 °F 76% 30.33 in 9.0 mi WNW 12.7 mph 19.6 mph N/A   Clear
10:00 PM 48.2 °F - 39.2 °F 71% 30.35 in 9.0 mi WNW 6.9 mph 19.6 mph N/A   Clear
11:00 PM 47 °F - 39 °F 64% 30.37 in 10 mi NW 6.9 mph - -  
11:00 PM 46.4 °F 42.9 °F 39.2 °F 76% 30.37 in 9.0 mi NW 6.9 mph - N/A   Clear